Location: Area 52 Observatory
(34.2620°N, 119.2590°W)
Time: 17:02:05
(UTC-07:00)

Tiangong 2 - Visible Passes

Search period start: 18 March 2019 00:00
Search period end: 28 March 2019 00:00
Orbit: 379 x 390 km, 42.8° (Epoch: 18 March)

Date Brightness Start Highest point End Pass type
(mag) Time Alt. Az. Time Alt. Az. Time Alt. Az.
18 Mar 3.2 06:06:13 10° NW 06:08:43 21° NNE 06:11:15 10° ENE visible
19 Mar 3.6 05:09:24 18° NNE 05:09:24 18° NNE 05:11:20 10° NE visible
20 Mar 2.8 05:44:58 17° NNW 05:46:43 28° NNE 05:49:31 10° E visible
21 Mar 4.0 04:48:23 17° NE 04:48:23 17° NE 04:49:35 10° ENE visible
21 Mar 1.2 06:20:58 10° WNW 06:24:09 78° NNE 06:27:19 10° ESE visible
22 Mar 2.0 05:24:08 39° N 05:24:37 42° NNE 05:27:39 10° E visible
23 Mar 4.7 04:27:46 10° E 04:27:46 10° E 04:27:47 10° E visible
23 Mar 1.3 06:00:01 21° WNW 06:01:52 51° SSW 06:04:57 10° SE visible
24 Mar 2.9 05:03:49 29° ESE 05:03:49 29° ESE 05:05:33 10° ESE visible
25 Mar 2.5 05:40:03 23° SSW 05:40:03 23° SSW 05:42:08 10° SSE visible
27 Mar 3.4 20:11:32 10° SSE 20:12:01 11° SSE 20:12:01 11° SSE visible
